User: anonymous   Login
Location: Napier
(39.4830°S, 176.9170°E)
Time: 14:33:13
(UTC+13:00)
Language:

Cosmos 1763 Rocket - Orbit

View from above orbital plane
View from above orbital plane
View from above satellite
View from above satellite

Ground track
Ground track

The orbit data is extracted from the following two-line orbital elements,

1 16864U 86052B   19077.73921514  .00000017  00000-0  13732-4 0  9990
2 16864  74.0312 350.6009 0034100 288.2079  71.5365 14.40535480715016
Epoch (UTC): 18 March 2019 17:44:28
Eccentricity: 0.0034100
inclination: 74.0312°
perigee height: 732 km
apogee height: 781 km
right ascension of ascending node: 350.6009°
argument of perigee: 288.2079°
revolutions per day: 14.40535480
mean anomaly at epoch: 71.5365°
orbit number at epoch: 71501

The dashed part of the orbit path shows where the satellite is in the earth's shadow,  

DLR